Flag for U.S.A. Weather past 2 weeks in Vevay, Indiana, U.S.A.

Now
87 °F

Scattered clouds.


Feels Like: 89 °F
Forecast: 68 / 95 °F
Wind: 7 mph from Southwest

Location: Cincinnati / Northern Kentucky International Airport

Current Time: Jul 22, 2014 at 6:35:24 PM

Latest Report: Jul 22, 2014 at 12:52 PM


Visibility: 10 mi

Pressure: 30.06 "Hg

Humidity: 48%

Dew point: 65 °F

Location of VevayLocation

Historic Weather in Vevay — Graph

°F

Vevay temperature yesterday

Maximum temperature yesterday: 87 °F (at 3:52 PM)
Minimum temperature yesterday: 67 °F (at 4:52 AM)
Average temperature yesterday: 77 °F

Past Weeks' High & Low Weather Summary

 TemperatureHumidityPressure
High89 °F (Jul 13, 1:52 PM)97% (Jul 14, 12:52 AM)30.20 "Hg (Jul 14, 12:52 AM)
Low53 °F (Jul 16, 4:52 AM)34% (Jul 17, 3:52 PM)29.76 "Hg (Jul 8, 10:52 AM)
Average72 °F68%30.01 "Hg
* Reported Jul 7 12:52 PM — Jul 22 12:52 PM, Vevay, Weather by CustomWeather, © 2014

Note: Actual official high and low records may vary slightly from our data, if they occured in-between our weather recording intervals... More about our weather records

Advertising

Vevay weather history for previous 24 hours

 ConditionsComfort  
Time TempWeatherWind HumidityBarometerVisibility
12:52 PM
Jul 22
87 °FScattered clouds.7 mph48%30.06 "Hg10 mi
11:52 AM85 °FScattered clouds.5 mph57%30.08 "Hg10 mi
10:52 AM84 °FPassing clouds.6 mph63%30.09 "Hg10 mi
9:52 AM81 °FPassing clouds.6 mph72%30.09 "Hg7 mi
8:52 AM78 °FScattered clouds.No wind76%30.10 "Hg7 mi
7:52 AM73 °FFog.No wind88%30.10 "Hg5 mi
6:52 AM70 °FFog.No wind87%30.09 "Hg3 mi
5:52 AM74 °FClear.5 mph79%30.07 "Hg8 mi
4:52 AM73 °FClear.3 mph81%30.06 "Hg8 mi
3:52 AM71 °FClear.5 mph81%30.06 "Hg8 mi
2:52 AM74 °FClear.3 mph76%30.06 "Hg9 mi
1:52 AM75 °FClear.No wind74%30.07 "Hg9 mi
12:52 AM76 °FClear.3 mph72%30.07 "Hg10 mi
11:52 PM
Jul 21
77 °FPassing clouds.5 mph66%30.08 "Hg9 mi
10:52 PM76 °FClear.No wind69%30.08 "Hg9 mi
9:52 PM79 °FSunny.6 mph62%30.06 "Hg10 mi
8:52 PM80 °FPassing clouds.5 mph60%30.05 "Hg9 mi
7:52 PM85 °FPassing clouds.8 mph51%30.05 "Hg10 mi
6:52 PM85 °FScattered clouds.5 mph48%30.05 "Hg10 mi
Weather by CustomWeather, © 2014

See weather overviewHow to use our weather pages